Station SRXA2 - Statter Harbor MXAK, AK Image indicating link to RSS feed of recent meteorological observations for station SRXA2


Conditions at SRXA2 as of
(3:23 pm AKDT)
2323 GMT on 04/14/2024:
     

Click on the graph icon in the table below to see a time series plot of the last five days of that observation.

5-day plot - Wind Direction Wind Direction (WDIR):SSW ( 200 deg true )
5-day plot - Wind Speed Wind Speed (WSPD): 9 kts
5-day plot - Wind Gust Wind Gust (GST): 13 kts
5-day plot - Atmospheric Pressure Atmospheric Pressure (PRES):30.00 in
5-day plot - Air Temperature Air Temperature (ATMP): 41.7 °F
5-day plot - Dew Point Dew Point (DEWP): 33.1 °F
5-day plot - Wind Chill Wind Chill (CHILL): 35.6 °F
5-day plot - Wind Speed at 10 Meters Wind Speed at 10 meters (WSPD10M): 10 kts
5-day plot - Wind Speed at 20 Meters Wind Speed at 20 meters (WSPD20M): 10 kts
5-day plot -  Wind Speed, Wind Gust and Atmospheric Pressure Combined plot of Wind Speed, Gust, and Air Pressure
Previous observations
TIME
(AKDT)
5-day plot - Wind Direction
WDIR
 
5-day plot - Wind Speed
WSPD
kts
5-day plot - Wind Gust
GST
kts
5-day plot - Wave Height
WVHT
ft
5-day plot - Dominant Wave Period
DPD
sec
5-day plot - Average Wave Period
APD
sec
5-day plot - Mean Wave Direction
MWD
 
5-day plot - Atmospheric Pressure
PRES
in
5-day plot - Pressure Tendency
PTDY
in
5-day plot - Air Temperature
ATMP
°F
5-day plot - Water Temperature
WTMP
°F
5-day plot - Dew Point
DEWP
°F
5-day plot - Salinity
SAL
psu
5-day plot - Visibility
VIS
nmi
5-day plot - Tide (above MLLW)
TIDE
ft
2024-04-14 03:13 pm S 9 12----30.00- 41.5- 33.4---
2024-04-14 03:03 pm S 7 10----30.00- 41.5- 33.4---
2024-04-14 02:53 pm S 7 10----30.00- 41.0- 33.4---
2024-04-14 02:43 pm SE 6 9----30.00- 40.6- 33.6---
2024-04-14 02:33 pmSSE 7 9----30.01- 40.5- 33.1---
2024-04-14 02:23 pmSSE 7 9----30.01- 40.5- 33.3---
2024-04-14 02:13 pmSSE 5 7----30.01- 40.5- 33.4---
2024-04-14 02:03 pm SE 3 5----30.01- 39.9- 33.3---
2024-04-14 01:53 pm SE 3 5----30.01- 39.4- 33.4---
2024-04-14 01:43 pmSSE 2 4----30.01- 40.3- 34.0---
2024-04-14 01:33 pmESE 1 3----30.01- 40.1- 34.0---
2024-04-14 01:23 pmSSE 2 3----30.01- 39.6- 34.0---
2024-04-14 01:13 pm S 2 3----30.01- 39.2- 34.2---
2024-04-14 01:03 pm S 3 5----30.00- 38.7- 33.8---
2024-04-14 12:53 pmSSE 3 4----30.00- 38.3- 34.0---
2024-04-14 12:43 pm S 3 5----30.00- 37.8- 33.8---
2024-04-14 12:33 pm S 3 6----30.00- 37.0- 33.4---
2024-04-14 12:23 pmSSE 3 5----30.00- 36.9- 33.4---
2024-04-14 12:13 pmSSW 2 3----30.00- 36.9- 33.1---
2024-04-14 12:04 pm S 2 4----29.99- 37.2- 33.3---
2024-04-14 11:53 am S 2 5----30.00- 36.9- 33.1---
2024-04-14 11:43 am SW 5 9----29.99- 36.9- 32.9---
2024-04-14 11:33 am SW 6 9----29.99- 37.4- 33.1---
2024-04-14 11:23 am SW 7 10----29.99- 37.6- 32.9---
2024-04-14 11:13 am SW 7 9----29.98- 37.8- 32.9---
2024-04-14 11:03 am SW 7 10----29.98- 37.8- 32.9---
2024-04-14 10:53 amSSW 5 8----29.98- 37.8- 33.1---
2024-04-14 10:43 amSSW 5 8----29.98- 37.6- 33.1---
2024-04-14 10:33 am S 5 8----29.98- 37.2- 33.4---
2024-04-14 10:23 am S 6 8----29.98- 36.7- 33.3---
2024-04-14 10:13 am S 7 10----29.98- 36.7- 33.4---
2024-04-14 10:03 am S 7 10----29.97- 36.9- 33.6---
2024-04-14 09:53 am S 7 10----29.97- 37.0- 33.6---
2024-04-14 09:43 am SW 6 8----29.97- 37.4- 33.3---
2024-04-14 09:33 amSSW 5 8----29.96- 37.6- 33.3---
2024-04-14 09:23 amSSW 3 5----29.96- 37.8- 33.1---
2024-04-14 09:13 amSSW 2 4----29.96- 37.6- 33.3---
2024-04-14 09:03 amSSW 2 3----29.96- 37.6- 33.1---
2024-04-14 08:53 am S 2 3----29.96- 37.2- 33.1---
2024-04-14 08:44 am SE 3 4----29.95- 36.9- 33.1---
2024-04-14 08:34 am- 0 2----29.95- 36.7- 32.7---
2024-04-14 08:23 am SE 1 2----29.95- 36.5- 33.1---
2024-04-14 08:13 am- 0 1----29.95- 36.1- 33.4---
2024-04-14 08:03 amNNE 1 3----29.95- 35.6- 33.1---
2024-04-14 07:53 am N 1 2----29.95- 35.4- 32.7---
2024-04-14 07:43 am N 2 3----29.95- 34.9- 32.5---
2024-04-14 07:33 amNNE 3 5----29.95- 34.7- 32.5---
2024-04-14 07:23 amNNE 3 5----29.95- 34.5- 32.4---
2024-04-14 07:13 am N 3 4----29.95- 34.5- 32.4---
2024-04-14 07:03 am NE 3 4----29.95- 34.5- 32.0---
2024-04-14 06:53 am N 3 5----29.95- 34.9- 31.8---
2024-04-14 06:43 am NW 4 7----29.95- 34.9- 31.8---
2024-04-14 06:33 amNNE 3 6----29.95- 34.9- 32.0---
2024-04-14 06:23 am N 3 5----29.95- 34.3- 32.5---
2024-04-14 06:13 am N 4 5----29.95- 34.2- 32.2---
2024-04-14 06:03 am N 4 5----29.95- 34.2- 32.2---
2024-04-14 05:53 am N 4 5----29.95- 34.0- 32.2---
2024-04-14 05:43 am N 4 5----29.95- 34.2- 32.0---
2024-04-14 05:33 am N 3 5----29.95- 34.7- 32.4---
2024-04-14 05:23 am NE 3 5----29.95- 34.3- 32.2---
2024-04-14 05:13 am N 4 5----29.95- 33.8- 31.8---
2024-04-14 05:03 am N 3 6----29.95- 34.2- 32.0---
2024-04-14 04:53 am NE 4 7----29.95- 34.3- 32.0---
2024-04-14 04:43 am NE 5 8----29.95- 34.3- 32.0---
2024-04-14 04:33 am NE 5 7----29.95- 34.2- 32.0---
2024-04-14 04:23 am NE 4 7----29.96- 33.8- 32.2---
2024-04-14 04:13 am N 4 5----29.96- 33.6- 32.2---
2024-04-14 04:03 amNNE 3 4----29.96- 33.1- 31.6---
2024-04-14 03:53 am N 4 6----29.96- 32.7- 31.3---
2024-04-14 03:43 am N 5 6----29.96- 33.1- 31.6---
2024-04-14 03:33 am N 4 5----29.95- 32.7- 31.1---
2024-04-14 03:23 amNNW 3 4----29.96- 32.9- 31.3---
2024-04-14 03:13 amNNW 3 5----29.96- 33.1- 31.5---
2024-04-14 03:03 am N 4 6----29.95- 34.0- 32.2---
2024-04-14 02:53 am N 3 4----29.95- 34.3- 32.5---
2024-04-14 02:43 am N 4 6----29.95- 34.7- 32.9---
2024-04-14 02:33 am N 4 5----29.95- 35.2- 33.3---
2024-04-14 02:23 am N 4 5----29.95- 35.6- 33.6---
2024-04-14 02:13 amNNE 4 5----29.95- 35.8- 33.6---
2024-04-14 02:03 am N 4 5----29.95- 36.1- 33.8---
2024-04-14 01:53 am N 3 5----29.95- 36.3- 33.8---
2024-04-14 01:43 am N 3 5----29.96- 36.5- 33.6---
2024-04-14 01:33 am N 4 5----29.96- 36.1- 33.8---
2024-04-14 01:23 am N 2 5----29.96- 36.1- 34.0---
2024-04-14 01:13 am N 4 6----29.96- 36.0- 33.8---
2024-04-14 01:03 am N 5 8----29.96- 36.0- 33.6---
2024-04-14 12:53 amNNE 6 8----29.95- 36.1- 33.6---
2024-04-14 12:43 amNNE 4 6----29.95- 36.7- 33.8---
2024-04-14 12:33 amNNE 5 8----29.95- 36.5- 33.8---
2024-04-14 12:23 am NE 5 7----29.95- 36.9- 33.6---
2024-04-14 12:14 amENE 3 5----29.95- 38.1- 33.4---
2024-04-14 12:03 amESE 4 7----29.95- 38.5- 33.4---
2024-04-13 11:53 pmSSE 6 10----29.95- 38.8- 33.6---
2024-04-13 11:43 pm SE 8 13----29.94- 38.7- 33.1---
2024-04-13 11:33 pmESE 3 9----29.94- 38.5- 33.6---
2024-04-13 11:23 pm SE 4 7----29.94- 38.5- 33.4---
2024-04-13 11:13 pm SE 6 13----29.94- 38.8- 33.3---
2024-04-13 11:03 pm E 4 10----29.94- 37.4- 34.0---
2024-04-13 10:53 pm N 3 7----29.94- 36.9- 34.2---
2024-04-13 10:43 pm NE 4 5----29.94- 36.7- 34.2---
2024-04-13 10:33 pm N 4 5----29.94- 36.9- 34.3---
2024-04-13 10:23 pm N 3 4----29.94- 37.0- 34.3---
2024-04-13 10:13 pmNNE 4 5----29.93- 36.7- 34.0---
2024-04-13 10:03 pmNNE 4 5----29.93- 36.9- 34.0---
2024-04-13 09:53 pmNNE 4 6----29.93- 36.9- 34.2---
2024-04-13 09:43 pmNNE 4 6----29.93- 36.7- 34.0---
2024-04-13 09:33 pm N 4 5----29.93- 36.9- 34.0---
2024-04-13 09:23 pm NE 5 8----29.93- 36.9- 33.8---
2024-04-13 09:13 pm NE 5 8----29.93- 36.9- 33.6---
2024-04-13 09:03 pm NE 6 9----29.93- 36.7- 33.8---
2024-04-13 08:53 pmNNE 7 10----29.93- 36.9- 33.8---
2024-04-13 08:44 pm N 5 9----29.93- 37.2- 34.0---
2024-04-13 08:34 pmNNE 4 7----29.93- 37.8- 33.4---
2024-04-13 08:23 pm E 4 7----29.93- 38.3- 33.3---
2024-04-13 08:14 pm S 10 17----29.92- 38.1- 33.3---
2024-04-13 08:03 pm S 15 20----29.91- 38.3- 34.0---
2024-04-13 07:53 pm S 15 21----29.91- 39.4- 33.6---
2024-04-13 07:43 pm S 14 20----29.91- 40.6- 33.6---
2024-04-13 07:33 pmSSE 6 10----29.91- 41.4- 34.0---
2024-04-13 07:23 pm SE 7 13----29.90- 41.4- 33.4---
2024-04-13 07:13 pmSSE 10 16----29.90- 41.5- 33.3---
2024-04-13 07:03 pmSSE 12 16----29.90- 41.7- 33.4---
2024-04-13 06:53 pmSSE 12 17----29.90- 41.7- 33.4---
2024-04-13 06:43 pmSSE 9 13----29.90- 41.7- 33.3---
2024-04-13 06:33 pmSSE 9 16----29.90- 41.7- 33.4---
2024-04-13 06:23 pmSSE 10 14----29.90- 41.5- 34.2---
2024-04-13 06:13 pmSSE 10 15----29.89- 41.5- 33.8---
2024-04-13 06:03 pmSSE 8 15----29.89- 41.5- 34.0---
2024-04-13 05:53 pmSSE 9 15----29.89- 41.4- 34.3---
2024-04-13 05:43 pmSSE 8 16----29.89- 41.5- 34.2---
2024-04-13 05:33 pmSSE 9 14----29.89- 41.7- 34.0---
2024-04-13 05:23 pmSSE 11 17----29.90- 41.9- 34.3---
2024-04-13 05:13 pm S 6 14----29.90- 41.5- 34.9---
2024-04-13 05:03 pmSSE 3 6----29.90- 41.0- 35.1---
2024-04-13 04:53 pm S 5 11----29.90- 40.6- 35.2---
2024-04-13 04:43 pm S 10 16----29.90- 40.3- 35.1---
2024-04-13 04:33 pmSSE 14 20----29.90- 40.6- 35.1---
2024-04-13 04:23 pm SE 5 15----29.90- 41.0- 36.1---
2024-04-13 04:13 pm NE 4 6----29.90- 41.0- 36.9---
2024-04-13 03:54 pmNNE 6 9----29.90- 40.8- 36.3---
2024-04-13 03:43 pm NE 5 9----29.91- 41.5- 36.1---
2024-04-13 03:33 pmENE 3 5----29.91- 42.1- 35.6---
2024-04-13 03:23 pm E 2 4----29.91- 42.3- 35.1---
2024-04-13 03:13 pmESE 1 3----29.91- 42.6- 35.4---
2024-04-13 03:03 pm SW 3 4----29.91- 42.3- 35.6---
2024-04-13 02:53 pmSSW 5 9----29.91- 41.2- 35.1---